Location: Владивосток
(43.1151°N, 131.8856°E)
Time: 00:59:57
(UTC+10:00)

FO-29 - Pass Details

Date: 27 April 2024
Orbit: 801 x 1320 km, 98.6° (Epoch: 19 May)

Event Time Altitude Azimuth Distance (km) Brightness Sun altitude
Rises 04:03:15 0° 8° (N) 4,218 13.6 -20.6°
Reaches altitude 10° 04:06:00 10° 2° (N) 3,290 12.9 -20.3°
Maximum altitude 04:13:12 45° 294° (WNW) 1,741 10.6 -19.3°
Enters shadow 04:17:04 27° 241° (WSW) 2,308 10.9 -18.8°
